Hourly Data Report for May 18, 2004

SHERBROOKE A
QUEBEC

45°26'00.000" N
71°41'00.000" W
241.40 m
7028124
71610
YSC

Download Data

Hourly Data (May 2004)
Hourly Data Report for May 18, 2004
TIME
LST
Temp Definition
°C
Dew Point Definition
°C
Rel Hum Definition
%
Precip. Amount Definition
mm

Wind Dir Definition
10's deg

Wind Spd Definition
km/h
Visibility Definition
km
Stn Press Definition
kPa
Hmdx Definition


Wind Chill Definition


Weather Definition


00:00 14.5 9.1 70   17 9 15.0 99.22      
01:00 15.5 9.7 68   17 9 15.0 99.12      
02:00 15.3 10.6 74   16 7 15.0 99.03      
03:00 15.6 11.5 77   20 7 15.0 98.97      
04:00 16.0 12.2 78   17 11 15.0 98.88      
05:00 16.6 12.9 79   20 4 11.3 98.89      
06:00 17.9 13.7 76   20 15 11.3 98.85      
07:00 19.7 14.5 72   19 13 11.3 98.79     Cloudy
08:00 18.7 14.9 79   18 11 9.7 98.72     Rain Showers,Haze
09:00 20.2 16.1 77   20 15 9.7 98.63 25   Haze
10:00 21.6 15.8 70   19 19 9.7 98.55 26   Haze
11:00 22.3 15.8 67   19 20 9.7 98.44 27   Haze
12:00 23.8 16.2 62   21 26 9.7 98.32 29   Haze
13:00 19.9 16.5 81   21 19 9.7 98.28     Moderate Rain Showers
14:00 21.6 16.8 74   21 24 9.7 98.15 27   Haze
15:00 21.6 15.7 69   22 15 16.1 98.04 26   Thunderstorms
16:00 17.0 15.9 93   26 19 16.1 98.16     Rain Showers
17:00 16.9 15.5 91   24 13 11.3 98.24     Drizzle
18:00 16.3 14.5 89   25 13 15.0 98.31      
19:00 16.2 13.8 86   25 13 15.0 98.31      
20:00 15.6 13.8 89   24 9 15.0 98.31      
21:00 15.8 14.0 89   25 9 15.0 98.36      
22:00 13.7 11.6 87   33 17 15.0 98.47      
23:00 11.9 8.9 82   33 7 15.0 98.55      

Notes on Data Quality.

Legend

  • E = Estimated
  • M = Missing
  • NA = Not Available*
  • [empty] = Indicates an unobserved value
Date modified: